Location: Alafon
(8.4500°N, 4.2333°E)
Time: 23:19:42
(UTC+00:00)

deb Explorer IX - Pass Details

Date: 01 August 2021
Orbit: 545 x 1091 km, 38.8° (Epoch: 19 September)

Event Time Altitude Azimuth Distance (km) Brightness Sun altitude
Rises 19:11:09 0° 318° (NW) 3,691 ? -16.5°
Reaches altitude 10° 19:13:48 10° 323° (NW) 2,802 ? -17.1°
Maximum altitude 19:20:34 54° 39° (NE) 1,287 ? -18.7°
Enters shadow 19:23:59 30° 101° (E) 1,823 ? -19.4°
Drops below altitude 10° 19:27:38 10° 115° (ESE) 2,928 - -20.3°
Sets 19:30:27 0° 119° (ESE) 3,868 - -20.9°
